TimeEST,TemperatureF,Dew PointF,Humidity,Sea Level PressureIn,VisibilityMPH,Wind Direction,Wind SpeedMPH,Gust SpeedMPH,PrecipitationIn,Events,Conditions,WindDirDegrees,DateUTC
12:15 AM,59.0,53.6,82,30.20,10.0,SW,4.6,-,N/A,,Clear,230,2012-12-05 05:15:00
12:35 AM,59.0,53.6,82,30.20,10.0,SW,4.6,-,N/A,,Clear,220,2012-12-05 05:35:00
12:55 AM,59.0,53.6,82,30.19,10.0,Calm,Calm,-,N/A,,Clear,0,2012-12-05 05:55:00
1:15 AM,59.0,53.6,82,30.19,10.0,SW,3.5,-,N/A,,Clear,220,2012-12-05 06:15:00
1:35 AM,59.0,53.6,82,30.18,10.0,SW,3.5,-,N/A,,Clear,230,2012-12-05 06:35:00
1:55 AM,59.0,53.6,82,30.18,10.0,Calm,Calm,-,N/A,,Clear,0,2012-12-05 06:55:00
2:15 AM,57.2,53.6,88,30.18,10.0,Calm,Calm,-,N/A,,Clear,0,2012-12-05 07:15:00
2:35 AM,55.4,53.6,94,30.18,10.0,SW,3.5,-,N/A,,Clear,230,2012-12-05 07:35:00
3:15 AM,55.4,53.6,94,30.18,10.0,SW,4.6,-,N/A,,Clear,230,2012-12-05 08:15:00
3:35 AM,57.2,53.6,88,30.17,10.0,SW,5.8,-,N/A,,Scattered Clouds,220,2012-12-05 08:35:00
3:55 AM,57.2,53.6,88,30.17,10.0,SSW,3.5,-,N/A,,Mostly Cloudy,210,2012-12-05 08:55:00
4:15 AM,57.2,53.6,88,30.17,10.0,SW,3.5,-,N/A,,Scattered Clouds,230,2012-12-05 09:15:00
4:35 AM,55.4,53.6,94,30.16,10.0,SSW,3.5,-,N/A,,Scattered Clouds,200,2012-12-05 09:35:00
4:55 AM,55.4,53.6,94,30.16,10.0,SW,3.5,-,N/A,,Mostly Cloudy,230,2012-12-05 09:55:00
5:15 AM,55.4,53.6,94,30.16,10.0,WSW,3.5,-,N/A,,Overcast,240,2012-12-05 10:15:00
5:35 AM,55.4,53.6,94,30.16,10.0,Calm,Calm,-,N/A,,Overcast,0,2012-12-05 10:35:00
5:55 AM,55.4,53.6,94,30.16,10.0,SSW,4.6,-,N/A,,Mostly Cloudy,210,2012-12-05 10:55:00
6:15 AM,57.2,53.6,88,30.16,10.0,SW,5.8,-,N/A,,Mostly Cloudy,220,2012-12-05 11:15:00
6:35 AM,57.2,53.6,88,30.16,10.0,SW,5.8,-,N/A,,Scattered Clouds,220,2012-12-05 11:35:00
6:55 AM,57.2,53.6,88,30.16,10.0,SW,5.8,-,N/A,,Overcast,220,2012-12-05 11:55:00
7:15 AM,57.2,53.6,88,30.17,10.0,SW,6.9,-,N/A,,Overcast,220,2012-12-05 12:15:00
7:35 AM,57.2,53.6,88,30.17,10.0,WSW,4.6,-,N/A,,Overcast,240,2012-12-05 12:35:00
7:55 AM,57.2,53.6,88,30.18,10.0,WSW,4.6,-,N/A,,Overcast,240,2012-12-05 12:55:00
8:15 AM,57.2,53.6,88,30.18,10.0,SW,5.8,-,N/A,,Mostly Cloudy,230,2012-12-05 13:15:00
9:55 AM,62.6,55.4,77,30.20,10.0,WSW,5.8,-,N/A,,Mostly Cloudy,240,2012-12-05 14:55:00
10:15 AM,64.4,55.4,73,30.20,10.0,SW,4.6,-,N/A,,Scattered Clouds,230,2012-12-05 15:15:00
10:35 AM,64.4,55.4,73,30.19,10.0,WSW,5.8,-,N/A,,Clear,240,2012-12-05 15:35:00
10:55 AM,66.2,55.4,68,30.18,10.0,WSW,8.1,-,N/A,,Clear,240,2012-12-05 15:55:00
11:15 AM,66.2,55.4,68,30.17,10.0,SW,6.9,-,N/A,,Scattered Clouds,230,2012-12-05 16:15:00
11:35 AM,66.2,55.4,68,30.17,10.0,WSW,6.9,-,N/A,,Mostly Cloudy,240,2012-12-05 16:35:00
11:55 AM,68.0,55.4,64,30.17,10.0,WSW,6.9,-,N/A,,Overcast,250,2012-12-05 16:55:00
12:15 PM,68.0,55.4,64,30.17,10.0,WSW,4.6,-,N/A,,Overcast,250,2012-12-05 17:15:00
12:35 PM,68.0,57.2,68,30.16,10.0,West,4.6,-,N/A,,Overcast,260,2012-12-05 17:35:00
12:55 PM,68.0,57.2,68,30.15,10.0,Calm,Calm,-,N/A,Rain,Light Rain,0,2012-12-05 17:55:00
1:15 PM,68.0,59.0,73,30.14,10.0,Calm,Calm,-,N/A,Rain,Light Rain,0,2012-12-05 18:15:00
1:35 PM,68.0,59.0,73,30.14,10.0,West,4.6,-,N/A,,Drizzle,260,2012-12-05 18:35:00
1:55 PM,68.0,60.8,78,30.13,10.0,Calm,Calm,-,N/A,,Drizzle,0,2012-12-05 18:55:00
2:15 PM,68.0,59.0,73,30.13,10.0,WNW,3.5,-,N/A,Rain,Rain,300,2012-12-05 19:15:00
2:35 PM,68.0,59.0,73,30.13,10.0,Calm,Calm,-,N/A,,Drizzle,0,2012-12-05 19:35:00
2:55 PM,66.2,60.8,83,30.12,10.0,WNW,3.5,-,N/A,Rain,Rain,290,2012-12-05 19:55:00
3:15 PM,66.2,60.8,83,30.12,10.0,NW,3.5,-,N/A,,Mostly Cloudy,320,2012-12-05 20:15:00
3:35 PM,66.2,59.0,78,30.12,10.0,Calm,Calm,-,N/A,,Scattered Clouds,0,2012-12-05 20:35:00
3:55 PM,68.0,59.0,73,30.11,10.0,Calm,Calm,-,N/A,,Clear,0,2012-12-05 20:55:00
4:15 PM,66.2,59.0,78,30.12,10.0,Calm,Calm,-,N/A,,Clear,0,2012-12-05 21:15:00
4:35 PM,66.2,59.0,78,30.12,10.0,North,3.5,-,N/A,,Scattered Clouds,360,2012-12-05 21:35:00
4:55 PM,66.2,59.0,78,30.12,10.0,North,3.5,-,N/A,,Mostly Cloudy,360,2012-12-05 21:55:00
5:15 PM,64.4,59.0,83,30.13,10.0,NNE,3.5,-,N/A,,Light Drizzle,20,2012-12-05 22:15:00
5:35 PM,64.4,59.0,83,30.13,10.0,NE,4.6,-,N/A,,Mostly Cloudy,40,2012-12-05 22:35:00
5:55 PM,64.4,59.0,83,30.14,10.0,NNE,3.5,-,N/A,Rain,Light Rain,30,2012-12-05 22:55:00
6:15 PM,62.6,59.0,88,30.15,10.0,NNE,5.8,-,N/A,,Light Drizzle,20,2012-12-05 23:15:00
6:35 PM,62.6,59.0,88,30.16,10.0,NE,5.8,-,N/A,,Light Drizzle,50,2012-12-05 23:35:00
6:55 PM,62.6,59.0,88,30.16,10.0,ENE,6.9,-,N/A,Rain,Light Rain,70,2012-12-05 23:55:00
7:15 PM,60.8,57.2,88,30.17,10.0,East,6.9,-,N/A,Rain,Rain,80,2012-12-06 00:15:00
7:35 PM,60.8,57.2,88,30.18,10.0,ENE,5.8,-,N/A,,Overcast,70,2012-12-06 00:35:00
7:55 PM,60.8,55.4,82,30.18,10.0,East,5.8,-,N/A,,Overcast,90,2012-12-06 00:55:00
8:15 PM,59.0,53.6,82,30.19,10.0,East,5.8,-,N/A,,Overcast,80,2012-12-06 01:15:00
8:35 PM,59.0,53.6,82,30.19,10.0,NE,3.5,-,N/A,,Overcast,40,2012-12-06 01:35:00
8:55 PM,59.0,51.8,77,30.19,10.0,Calm,Calm,-,N/A,,Overcast,0,2012-12-06 01:55:00
9:15 PM,59.0,51.8,77,30.19,10.0,Calm,Calm,-,N/A,,Overcast,0,2012-12-06 02:15:00
9:35 PM,59.0,50.0,72,30.19,10.0,NE,3.5,-,N/A,,Overcast,50,2012-12-06 02:35:00
9:55 PM,59.0,48.2,67,30.19,10.0,NE,3.5,-,N/A,,Overcast,50,2012-12-06 02:55:00
10:15 PM,59.0,44.6,59,30.19,10.0,Calm,Calm,-,N/A,,Overcast,0,2012-12-06 03:15:00
10:35 PM,59.0,46.4,63,30.19,10.0,NE,4.6,-,N/A,,Overcast,50,2012-12-06 03:35:00
10:55 PM,59.0,46.4,63,30.19,10.0,NE,4.6,-,N/A,,Overcast,40,2012-12-06 03:55:00
11:15 PM,59.0,46.4,63,30.19,10.0,Calm,Calm,-,N/A,,Overcast,0,2012-12-06 04:15:00
11:35 PM,59.0,46.4,63,30.19,10.0,Calm,Calm,-,N/A,,Overcast,0,2012-12-06 04:35:00
11:55 PM,59.0,46.4,63,30.19,10.0,NE,3.5,-,N/A,,Overcast,40,2012-12-06 04:55:00